[[{"header":{"parameterUnit":"m.s-1","parameterCategory":1,"la1":30.2991,"la2":30.254,"lo1":-89.0895,"lo2":-89.0444,"dy":0.0017,"dx":0.0017,"nx":28,"ny":28,"refTime":"2025-05-29T03:00:00:Z","depth":0,"parameterNumber":2,"parameterNumberName":"U-component_of_WINDS"},"data":[0,0,0,0,0,0,0,0,0,0,0,0,0,0,0,0,0,0,0,0,0,0,0,0,0,0,0,0,0,0,0,0,0,0,0,0,0,0,0,0,0,0,0,0,0,0,0,0,0,0,0,0,0,0,0,0,0,0,1.7622,1.7623,0,1.7733,1.7735,1.7736,1.7747,1.7746,1.7745,1.7744,1.7858,1.7862,1.7866,0,0,0,0,0,0,0,0,0,0,0,0,0,1.7419,1.7422,1.7622,1.7623,1.7625,1.7733,1.7735,1.7736,1.7748,1.7746,1.7745,1.7743,1.7857,1.7861,1.7866,0,0,0,0,0,0,0,0,0,0,0,0,0,1.7516,1.7423,1.7622,1.7644,1.7647,1.7733,1.7735,1.7737,1.7748,1.7746,1.7744,1.7743,1.7855,1.7861,1.7867,1.7939,0,0,1.7886,1.7888,0,0,0,0,0,0,0,0,1.751,1.7523,1.7639,1.7642,1.7646,1.7725,1.7705,1.7804,1.7748,1.7709,1.7744,1.7742,1.7815,1.7824,1.7849,1.7944,1.7949,1.7886,1.789,1.7893,1.7894,0,0,0,0,0,0,0,1.7504,1.7519,1.7666,1.7641,1.7645,1.7647,1.7659,1.7724,1.777,1.7713,1.7714,1.7727,1.7816,1.7843,1.7852,1.7951,1.7886,1.7892,1.7895,1.7898,1.811,1.8111,0,0,0,0,0,0,1.7493,1.7513,1.7662,1.7669,1.7573,1.7652,1.7666,1.7701,1.777,1.7779,1.7728,1.7727,1.7833,1.7844,1.7856,1.7943,1.7893,1.7898,1.7902,1.8108,1.811,1.8112,0,0,0,0,0,0,1.7489,1.7506,1.7658,1.7592,1.7611,1.7658,1.7697,1.7704,1.7731,1.7781,1.779,1.7747,1.7832,1.7847,1.7918,1.7947,1.7901,1.7907,1.8105,1.8108,1.8111,1.8119,0,0,0,0,0,0,1.7483,1.7505,1.7533,1.7592,1.7615,1.7718,1.7699,1.7708,1.7741,1.7741,1.7801,1.7809,1.7832,1.7909,1.7924,1.7955,1.7911,1.8103,1.8107,1.811,1.8117,1.8122,1.8127,0,0,0,0,0,1.7475,1.7531,1.7534,1.7552,1.7651,1.772,1.7733,1.7758,1.7744,1.7772,1.7804,1.7807,1.7942,1.7916,1.7933,1.7966,1.8101,1.8106,1.811,1.8114,1.8121,1.8127,0,0,0,0,0,0,1.7474,1.7539,1.7543,1.762,1.7664,1.7722,1.7758,1.7765,1.7814,1.7812,1.7841,1.7855,1.7924,1.7953,1.7922,1.8039,1.802,1.8028,1.8017,1.8024,1.8029,1.802,1.7917,0,0,0,0,0,1.7482,1.7534,1.7588,1.765,1.7672,1.7712,1.7743,1.7758,1.7806,1.7824,1.7862,1.7908,1.796,1.7994,1.8045,1.8121,1.8134,1.8153,1.8158,1.8162,1.8168,1.8209,1.8217,1.8126,1.8126,1.8126,0,0,1.7501,1.7543,1.7573,1.7651,1.7687,1.7739,1.7727,1.7783,1.7821,1.7833,1.7901,1.7931,1.7984,1.8057,1.8091,1.8083,1.8196,1.8167,1.817,1.8174,1.8214,1.8223,1.823,1.8129,1.8129,1.8128,0,0,1.756,1.7597,1.7652,1.7689,1.7744,1.777,1.7783,1.784,1.7859,1.7929,1.7938,1.7984,1.8075,1.8111,1.8142,1.8214,1.8218,1.823,1.8256,1.8296,1.8303,1.8309,1.8333,1.8342,1.8236,1.8236,1.8236,0,1.7575,1.7654,1.768,1.7735,1.7768,1.7781,1.7836,1.7871,1.794,1.7962,1.7952,1.8065,1.8101,1.8182,1.82,1.8225,1.824,1.8223,1.83,1.8307,1.8313,1.8336,1.8345,1.8237,1.8237,1.8237,1.8237,0,1.7669,1.7723,1.7761,1.7827,1.7865,1.792,1.7954,1.7989,1.8001,1.8028,1.8097,1.8142,1.8202,1.8222,1.8235,1.8305,1.8298,1.8294,1.8275,1.8322,1.8344,1.8354,1.8239,1.8238,1.8238,1.8238,0,0,1.7729,1.7809,1.7822,1.7851,1.7913,1.7955,1.801,1.8068,1.8097,1.8145,1.8191,1.8266,1.8262,1.8297,1.8314,1.8349,1.8401,1.834,1.8342,1.8348,1.8479,1.8481,1.8491,1.8405,1.8407,1.8408,1.8474,0,1.7794,1.7892,1.7918,1.8001,1.8051,1.8064,1.8112,1.8154,1.8181,1.8226,1.8256,1.8308,1.83,1.832,1.8355,1.8387,1.8427,1.8383,1.8447,1.8449,1.8431,1.8503,1.8505,1.8565,1.8483,1.8485,1.8486,0,1.7882,1.7931,1.8019,1.8073,1.8095,1.8137,1.8192,1.8236,1.8284,1.8301,1.8339,1.8353,1.841,1.8389,1.8468,1.8437,1.8465,1.8485,1.8488,1.8493,1.8469,1.8508,1.8585,1.8593,1.85,1.8499,1.8498,0,1.7915,1.8003,1.8066,1.8091,1.8156,1.8186,1.8214,1.8261,1.8294,1.8342,1.8363,1.8418,1.8447,1.8488,1.8516,1.8499,1.8592,1.8574,1.8606,1.8605,1.8624,1.8622,1.8704,1.8645,1.8645,1.8645,1.8644,0,1.7984,1.8037,1.8082,1.8121,1.818,1.8209,1.8267,1.8296,1.8337,1.8382,1.8397,1.8438,1.8473,1.8519,1.8541,1.8602,1.8616,1.863,1.8635,1.8628,1.8626,1.8645,1.8641,1.8647,1.8647,1.8646,1.8646,0,1.803,1.8062,1.8132,1.8188,1.8203,1.8244,1.8292,1.833,1.8357,1.8413,1.8427,1.8469,1.8524,1.8556,1.8626,1.8641,1.8707,1.8712,1.8691,1.8693,1.8723,1.8719,1.8818,1.8832,1.8765,1.8766,1.8767,0,1.807,1.8111,1.8171,1.8202,1.823,1.828,1.8314,1.8343,1.8377,1.8435,1.8466,1.8522,1.8567,1.8654,1.8691,1.8744,1.8748,1.8779,1.8756,1.8747,1.8746,1.8743,1.8746,1.8783,1.8783,1.8784,1.8784,0,1.8138,1.8152,1.82,1.8253,1.8292,1.8336,1.8379,1.8403,1.844,1.8478,1.8534,1.8569,1.864,1.8694,1.875,1.8779,1.8787,1.8792,1.8801,1.8794,1.8779,1.8785,1.87,1.8789,1.8788,1.8788,1.8788,1.8788,1.8182,1.8218,1.8265,1.8318,1.8353,1.8393,1.8431,1.8462,1.851,1.8569,1.8584,1.8642,1.8689,1.8765,1.8795,1.8841,1.8835,1.885,1.8854,1.8857,1.8856,1.8773,1.8851,1.8851,1.8851,1.8851,1.8851,0,1.8249,1.828,1.8328,1.8387,1.8428,1.8433,1.8481,1.8514,1.8565,1.8608,1.8653,1.8717,1.877,1.881,1.8865,1.8893,1.8898,1.8906,1.8904,1.891,1.8859,1.8844,1.8901,1.8901,1.8901,1.8901,1.8901,1.8901,1.8288,1.8349,1.8369,1.8448,1.8479,1.8536,1.8562,1.8599,1.8633,1.8703,1.8747,1.8773,1.8815,1.8872,1.8921,1.8932,1.895,1.8957,1.8968,1.8919,1.8914,1.8908,1.8894,1.8961,1.8961,1.9015,1.9015,1.9016]},{"header":{"parameterUnit":"m.s-1","parameterCategory":1,"la1":30.2991,"la2":30.254,"lo1":-89.0895,"lo2":-89.0444,"dy":0.0017,"dx":0.0017,"nx":28,"ny":28,"refTime":"2025-05-29T03:00:00:Z","depth":0,"parameterNumber":3,"parameterNumberName":"V-component_of_WINDS"},"data":[0,0,0,0,0,0,0,0,0,0,0,0,0,0,0,0,0,0,0,0,0,0,0,0,0,0,0,0,0,0,0,0,0,0,0,0,0,0,0,0,0,0,0,0,0,0,0,0,0,0,0,0,0,0,0,0,0,0,3.9444,3.9444,0,3.9462,3.9462,3.9462,3.9383,3.938,3.9378,3.9376,3.9394,3.9396,3.9399,0,0,0,0,0,0,0,0,0,0,0,0,0,3.934,3.9343,3.9444,3.9444,3.9445,3.9462,3.9462,3.9462,3.9383,3.938,3.9377,3.9375,3.9393,3.9396,3.9399,0,0,0,0,0,0,0,0,0,0,0,0,0,3.9375,3.9344,3.9444,3.9407,3.9404,3.9461,3.9462,3.9462,3.9384,3.938,3.9377,3.9373,3.9392,3.9396,3.9399,3.9493,0,0,3.9412,3.9413,0,0,0,0,0,0,0,0,3.9373,3.9378,3.9412,3.941,3.9406,3.9416,3.9432,3.9473,3.9384,3.9391,3.9376,3.9372,3.9404,3.9407,3.9418,3.9494,3.9495,3.9412,3.9414,3.9416,3.9417,0,0,0,0,0,0,0,3.937,3.9377,3.9451,3.9413,3.9409,3.9389,3.939,3.9439,3.9417,3.939,3.9385,3.9388,3.9402,3.9414,3.9417,3.9495,3.9412,3.9415,3.9418,3.9419,3.9647,3.965,0,0,0,0,0,0,3.9373,3.9376,3.945,3.9451,3.9381,3.9394,3.9395,3.9417,3.9416,3.9413,3.9391,3.9384,3.9409,3.9413,3.9418,3.9525,3.9416,3.942,3.9422,3.9643,3.9647,3.9651,0,0,0,0,0,0,3.9371,3.9381,3.945,3.9412,3.9419,3.9399,3.9424,3.9419,3.9431,3.9416,3.9412,3.9408,3.9406,3.9412,3.9474,3.9525,3.9421,3.9425,3.9639,3.9644,3.9649,3.9743,0,0,0,0,0,0,3.9369,3.938,3.9416,3.9413,3.9422,3.9507,3.9427,3.9422,3.9438,3.9429,3.9431,3.9428,3.9404,3.9469,3.9478,3.9529,3.9428,3.9634,3.9641,3.9648,3.9735,3.9751,3.9765,0,0,0,0,0,3.9365,3.9443,3.9419,3.9428,3.9466,3.951,3.9515,3.9486,3.9443,3.9478,3.9468,3.9428,3.9518,3.9476,3.9486,3.9538,3.9631,3.9639,3.9647,3.9729,3.9748,3.9764,0,0,0,0,0,0,3.9453,3.9442,3.9415,3.9494,3.9504,3.9497,3.9541,3.9507,3.9529,3.9521,3.9484,3.9485,3.9553,3.9552,3.9505,3.9627,3.9567,3.9577,3.9626,3.9644,3.9658,3.9656,3.9431,0,0,0,0,0,3.9481,3.9518,3.9506,3.9577,3.9583,3.9561,3.9579,3.9556,3.9564,3.9568,3.9563,3.9572,3.9602,3.9623,3.965,3.9735,3.9733,3.9776,3.979,3.9802,3.9812,3.9854,3.9872,3.9678,3.9678,3.9678,0,0,3.9541,3.9539,3.9565,3.9595,3.9599,3.9637,3.9565,3.9609,3.9636,3.9575,3.9632,3.9629,3.9637,3.971,3.9742,3.9712,3.9865,3.9813,3.9823,3.9825,3.9864,3.9883,3.9899,3.9684,3.9683,3.9682,0,0,3.9668,3.9671,3.9729,3.9735,3.9742,3.9727,3.9741,3.9739,3.9734,3.9791,3.9745,3.9777,3.983,3.9837,3.9847,3.9975,3.9938,3.9985,4.0061,4.0103,4.0118,4.0131,4.0175,4.0191,3.9994,3.9995,3.9995,0,3.9741,3.9796,3.9763,3.981,3.9823,3.9768,3.9826,3.9833,3.9849,3.986,3.9825,3.9889,3.9891,3.9964,3.9995,4.0006,4.0019,3.9984,4.0118,4.0131,4.0143,4.0184,4.0201,4.0,3.9999,3.9999,3.9998,0,3.9884,3.9923,3.9969,3.9985,4.0004,4.0056,4.003,4.0053,4.0028,4.0016,4.0074,4.0074,4.0099,4.0114,4.0091,4.0184,4.0164,4.0125,4.0063,4.0168,4.0206,4.0221,4.0008,4.0006,4.0004,4.0003,0,0,4.0068,4.0063,4.0081,4.0086,4.0089,4.0118,4.0167,4.0191,4.021,4.0223,4.0262,4.0308,4.027,4.0282,4.0259,4.0296,4.0394,4.0251,4.0251,4.0276,4.0494,4.0522,4.0541,4.037,4.0373,4.0375,4.0493,0,4.0191,4.0273,4.0244,4.0328,4.0362,4.031,4.0352,4.0358,4.0348,4.0375,4.0363,4.0395,4.0345,4.0351,4.0386,4.0375,4.0437,4.0366,4.0404,4.0406,4.0403,4.0561,4.0592,4.0703,4.0507,4.051,4.0512,0,4.0345,4.0363,4.045,4.0445,4.0458,4.0496,4.0515,4.0542,4.0547,4.0537,4.0549,4.0517,4.0563,4.0502,4.0564,4.0517,4.0531,4.0528,4.0531,4.0533,4.0465,4.0566,4.0738,4.0755,4.0535,4.0533,4.0532,0,4.0468,4.0514,4.0571,4.0577,4.0573,4.0601,4.0601,4.0602,4.0618,4.0634,4.0643,4.0665,4.0677,4.0694,4.0668,4.0626,4.0733,4.067,4.0725,4.0726,4.0749,4.0748,4.0925,4.0761,4.0761,4.076,4.076,0,4.0608,4.0662,4.0625,4.0661,4.072,4.0685,4.0745,4.0739,4.074,4.0773,4.0729,4.076,4.0725,4.0752,4.0733,4.0786,4.0792,4.0784,4.0778,4.0787,4.0788,4.0795,4.0786,4.0765,4.0764,4.0763,4.0762,0,4.0755,4.0732,4.0791,4.0781,4.078,4.0824,4.0816,4.0847,4.0833,4.0875,4.0883,4.0861,4.0891,4.0867,4.0897,4.0883,4.0953,4.0937,4.0951,4.0946,4.1002,4.0996,4.1188,4.1211,4.1034,4.1036,4.1037,0,4.0845,4.0885,4.088,4.0898,4.09,4.093,4.0945,4.0912,4.093,4.0937,4.0968,4.0994,4.1013,4.1063,4.105,4.1072,4.1055,4.1121,4.1058,4.1065,4.1054,4.1051,4.1054,4.1133,4.1135,4.1137,4.1138,0,4.1006,4.0992,4.1015,4.1034,4.1053,4.1066,4.1076,4.1094,4.106,4.1082,4.1111,4.1126,4.1155,4.1182,4.1199,4.1198,4.1162,4.1158,4.1172,4.1181,4.1187,4.1183,4.0984,4.1154,4.1152,4.1151,4.115,4.115,4.1126,4.1158,4.1159,4.1185,4.1189,4.1199,4.1227,4.1216,4.124,4.1261,4.124,4.1276,4.1278,4.1297,4.13,4.1327,4.13,4.132,4.1325,4.133,4.1337,4.1184,4.1331,4.133,4.133,4.1329,4.1329,0,4.1283,4.128,4.1305,4.1319,4.134,4.1304,4.1313,4.1332,4.1364,4.1369,4.1388,4.1421,4.1445,4.1434,4.1455,4.1478,4.1463,4.1485,4.1482,4.1482,4.1361,4.1347,4.1497,4.1497,4.1497,4.1497,4.1497,4.1497,4.1367,4.142,4.1406,4.1459,4.1456,4.1489,4.1497,4.1506,4.1509,4.1548,4.1567,4.1559,4.1557,4.1577,4.1598,4.1593,4.1603,4.1631,4.1621,4.1508,4.1491,4.1475,4.1461,4.1633,4.1634,4.1739,4.174,4.1741]}]]